EHI
0 0 0 0 0 0 0 0 0 0 0 0 0 0 0 0 0 0 0 0 0 0 0 0 0 0 0 0 0 0 0 0 0 0 0 0 0 0 0 0 0 0 0 0 0 0 0 0 0
0 0 0 0 0 0 0 0 0 0 0 0 0 0 0 0 0 0 0 0 0 0 0 0 0 0 0 0 0 0 0 0 0 0 0 0 0 0 0 0 0 0 0 0 0 0 0 0 0
0 0 0 0 0 0 0 0 0 0 0 0 0 0 0 0 0 0 0 0 0 0 0 0 0 0 0 0 0 0 0 0 0 0 0 0 0 0 0 0 0 0 0 0 0 0 0 0 0
0 0 0 0 0 0 0 0 0 0 0 0 0 0 0 0 0 0 0 0 0 0 0 0 0 0 0 0 0 0 0 0 0 0 0 0 0 0 0 0 0 0 0 0 0 0 0 0 0
0 0 0 0 0 0 0 0 0 0 0 0 0 0 0 0 0 0 0 0 0 0 0 0 0 0 0 0 0 0 0 0 0 0 0 0 0 0 0 0 0 0 0 0 0 0 0 0 0
0 0 0 0 0 0 0 0 0 0 0 0 0 0 0 0 0 0 0 0 0 0 0 0 0 0 0 0 0 0 0 0 0 0 0 0 0 0 0 0 0 0 0 0 0 0 0 0 0
0 0 0 0 0 0 0 0 0 0 0 0 0 0 0 0 0 0 0 0 0 0 0 0 0 0 0 0 0 0 0 0 0 0 0 0 0 0 0 0 0 0 0 0 0 0 0 0 0
0 0 0 0 0 0 0 0 0 0 0 0 0 0 0 0 0 0 0 0 0 0 0 0 0 0 0 0 0 0 0 0 0 0 0 0 0 0 0 0 0 0 0 0 0 0 0 0 0
0 0 0 0 0 0 0 0 0 0 0 0 0 0 0 0 0 0 0 0 0 0 0 0 0 0 0 0 0 0 0 0 0 0 0 0 0 0 0 0 0 0 0 0 0 0 0 0 0
0 0 0 0 0 0 0 0 0 0 0 0 0 0 0 0 0 0 0 0 0 0 0 0 0 0 0 0 0 0 0 0 0 0 0 0 0 0 0 0 0 0 0 0 0 0 0 0 0
0 0 0 0 0 0 0 0 0 0 0 0 0 0 0 0 0 0 0 0 0 0 0 0 0 0 0 0 0 0 0 0 0 0 0 0 0 0 0 0 0 0 0 0 0 0 0 0 0
0 0 0 0 0 0 0 0 0 0 0 0 0 0 0 0 0 0 0 0 0 0 0 0 0 0 0 0 0 0 0 0 0 0 0 0 0 0 0 0 0 0 0 0 0 0 0 0 0
0 0 0 0 0 0 0 0 0 0 0 0 0 0 0 0 0 0 0 0 0 0 0 0 0 0 0 0 0 0 0 0 0 0 0 0 0 0 0 0 0 0 0 0 0 0 0 0 0
0 0 0 0 0 0 0 0 0 0 0 0 0 0 0 0 0 0 0 0 0 0 0 0 0 0 0 0 0 0 0 0 0 0 0 0 0 0 0 0 0 0 0 0 0 0 0 0 0
0 0 0 0 0 0 0 0 0 0 0 0 0 0 0 0 0 0 0 0 0 0 0 0 0 0 0 0 0 0 0 0 0 0 0 0 0 0 0 0 0 0 0 0 0 0 0 0 0
0 0 0 0 0 0 0 0 0 0 0 0 0 0 0 0 0 0 0 0 0 0 0 0 0 0 0 0 0 0 0 0 0 0 0 0 0 0 0 0 0 0 0 0 0 0 0 0 0
0 0 0 0 0 0 0 0 0 0 0 0 0 0 0 0 0 0 0 0 0 0 0 0 0 0 0 0 0 0 0 0 0 0 0 0 0 0 0 0 0 0 0 0 0 0 0 0 0
0 0 0 0 0 0 0 0 0 0 0 0 0 0 0 0 0 0 0 0 0 0 0 0 0 0 0 0 0 0 0 0 0 0 0 0 0 0 0 0 0 0 0 0 0 0 0 0 0
0 0 0 0 0 0 0 0 0 0 0 0 0 0 0 0 0 0 0 0 0 0 0 0 0 0 0 0 0 0 0 0 0 0 0 0 0 0 0 0 0 0 0 0 0 0 0 0 0
0 0 0 0 0 0 0 0 0 0 0 0 0 0 0 0 0 0 0 0 0 0 0 0 0 0 0 0 0 0 0 0 0 0 0 0 0 0 0 0 0 0 0 0 0 0 0 0 0
0 0 0 0 0 0 0 0 0 0 0 0 0 0 0 0 0 0 0 0 0 0 0 0 0 0 0 0 0 0 0 0 0 0 0 0 0 0 0 0 0 0 0 0 0 0 0 0 0
0 0 0 0 0 0 0 0 0 0 0 0 0 0 0 0 0 0 0 0 0 0 0 0 0 0 0 0 0 0 0 0 0 0 0 0 0 0 0 0 0 0 0 0 0 0 0 0 0
0 0 0 0 0 0 0 0 0 0 0 0 0 0 0 0 0 0 0 0 0 0 0 0 0 0 0 0 0 0 0 0 0 0 0 0 0 0 0 0 0 0 0 0 0 0 0 0 0
0 0 0 0 0 0 0 0 0 0 0 0 0 0 0 0 0 0 0 0 0 0 0 0 0 0 0 0 0 0 0 0 0 0 0 0 0 0 0 0 0 0 0 0 0 0 0 0 0
0 0 0 0 0 0 0 0 0 0 0 0 0 0 0 0 0 0 0 0 0 0 0 0 0 0 0 0 0 0 0 0 0 0 0 0 0 0 0 0 0 0 0 0 0 0 0 0 0
0 0 0 0 0 0 0 0 0 0 0 0 0 0 0 0 0 0 0 0 0 0 0 0 0 0 0 0 0 0 0 0 0 0 0 0 0 0 0 0 0 0 0 0 0 0 0 0 0
0 0 0 0 0 0 0 0 0 0 0 0 0 0 0 0 0 0 0 0 0 0 0 0 0 0 0 0 0 0 0 0 0 0 0 0 0 0 0 0 0 0 0 0 0 0 0 0 0
0 0 0 0 0 0 0 0 0 0 0 0 0 0 0 0 0 0 0 0 0 0 0 0 0 0 0 0 0 0 0 0 0 0 0 0 0 0 0 0 0 0 0 0 0 0 0 0 0
0 0 0 0 0 0 0 0 0 0 0 0 0 0 0 0 0 0 0 0 0 0 0 0 0 0 0 0 0 0 0 0 0 0 0 0 0 0 0 0 0 0 0 0 0 0 0 0 0
0 0 0 0 0 0 0 0 0 0 0 0 0 0 0 0 0 0 0 0 0 0 0 0 0 0 0 0 0 0 0 0 0 0 0 0 0 0 0 0 0 0 0 0 0 0 0 0 0
Wind_Speed
7 9 7 2 3 4 7 0 3 4 3 4 4 3 4 5 3 3 6 9 14 15 15 16 19 17 16 14 13 12 11 11 10 10 10 10 10 11 11 12 12 12 13 13 14 15 15 16 16
7 8 5 3 4 5 4 2 4 8 6 4 2 1 3 2 7 10 7 10 15 15 15 14 19 18 16 15 14 13 12 11 10 10 10 9 10 10 10 10 11 11 12 12 13 13 14 14 15
8 7 4 4 6 6 3 5 8 8 5 2 3 2 3 4 10 10 8 13 13 13 14 15 20 18 17 16 14 13 12 11 10 10 9 9 9 9 9 9 10 10 11 11 11 12 13 13 14
5 4 4 5 9 6 2 3 6 6 4 2 3 3 3 5 6 10 13 13 12 12 13 16 21 19 18 16 15 14 13 12 11 10 9 9 8 8 8 8 9 9 9 9 10 11 11 12 13
3 4 5 7 10 7 1 4 4 2 4 7 5 4 5 5 9 14 13 12 12 11 13 15 20 19 18 17 16 14 13 12 11 10 9 8 8 8 7 7 7 7 8 8 9 9 10 11 11
4 4 5 7 9 5 1 4 4 3 5 5 6 5 3 6 10 13 12 10 10 11 13 15 20 20 19 17 16 15 14 13 12 11 10 9 8 7 7 6 6 6 6 6 7 8 8 9 10
3 4 7 10 10 8 6 4 1 2 5 4 8 4 6 7 9 12 11 9 9 10 12 12 11 14 18 18 17 16 15 14 13 11 10 9 8 7 6 6 5 4 4 5 5 6 6 7 8
3 4 8 9 10 8 4 3 1 2 5 2 7 5 3 10 11 10 10 8 8 9 9 13 11 10 9 10 17 17 16 15 14 12 11 10 8 7 6 5 5 4 3 3 3 4 4 5 6
3 4 7 9 9 7 4 2 2 2 3 4 3 0 6 15 13 11 9 8 8 10 9 11 13 11 10 9 14 14 15 15 14 11 12 10 5 5 5 5 6 4 3 1 0 1 2 3 3
3 4 9 9 7 7 7 7 6 3 6 7 7 5 10 14 13 14 14 15 14 13 12 9 12 12 11 11 9 7 7 7 7 6 7 5 5 4 6 8 7 6 5 4 3 3 3 2 1
5 8 9 9 7 5 7 8 8 8 10 10 10 12 15 15 15 16 16 16 15 13 12 11 10 11 11 7 8 6 5 6 7 8 9 6 5 4 4 3 4 4 6 4 5 4 2 1 0
7 9 9 8 4 3 6 7 8 11 13 9 8 5 17 17 18 19 19 16 13 12 14 12 11 9 10 8 7 7 6 6 6 7 10 7 4 4 4 4 5 5 4 4 3 3 3 2 2
9 9 8 5 4 5 8 11 11 15 15 11 10 8 16 18 18 17 15 13 13 15 15 13 12 11 9 8 7 7 6 7 7 6 7 8 5 5 5 4 4 5 4 4 4 4 4 3 3
6 8 10 11 10 7 9 11 8 15 11 11 11 10 13 17 17 14 15 16 17 16 16 15 14 12 10 9 7 6 6 6 7 6 7 8 6 6 6 5 5 5 4 4 4 5 4 3 3
4 7 12 13 11 4 2 9 10 16 11 11 10 10 12 15 16 17 17 17 16 15 15 16 15 13 12 11 9 7 6 7 7 7 9 9 8 7 6 6 5 5 5 5 4 4 3 3 3
6 6 7 4 5 6 2 12 8 8 8 10 10 9 11 14 17 17 16 15 14 12 14 16 15 14 13 11 10 7 7 7 7 7 8 11 10 9 7 6 6 6 5 5 4 4 4 4 4
6 6 9 8 3 5 6 13 12 9 11 11 9 7 8 10 14 17 17 17 15 14 14 14 15 15 13 11 9 8 7 8 7 7 8 10 12 11 8 7 6 7 6 5 6 5 5 4 5
8 9 10 10 8 6 8 15 18 12 9 7 6 5 4 5 7 11 15 15 15 14 13 13 14 13 12 9 8 7 8 7 7 8 9 11 11 12 10 7 8 8 6 7 6 6 6 5 4
8 9 13 13 9 6 10 16 18 13 5 4 5 5 4 5 4 2 8 11 12 12 12 14 14 14 12 10 11 11 11 8 7 8 11 13 12 13 12 9 9 9 9 9 9 7 7 6 4
8 10 12 10 8 11 13 15 13 5 1 2 5 6 6 6 7 4 2 7 10 11 11 12 13 14 13 11 9 7 7 6 7 7 10 13 14 14 14 13 11 11 9 11 11 9 7 6 7
9 8 8 10 11 9 7 9 2 5 7 7 7 7 7 6 6 5 2 4 7 9 11 10 12 12 12 10 6 5 5 5 8 10 10 12 14 15 14 15 13 12 12 12 14 12 12 9 8
8 4 6 8 8 6 6 6 6 4 8 8 8 7 7 6 5 5 3 2 5 7 8 9 10 10 11 11 10 11 11 14 14 9 8 10 14 15 15 15 15 14 12 13 14 14 11 10 8
5 7 8 7 5 6 6 4 7 3 6 7 6 6 6 6 6 4 2 1 3 5 6 7 8 9 10 12 12 12 13 13 7 8 10 12 12 15 16 16 15 15 13 14 13 14 14 12 11
6 9 11 5 2 5 2 2 6 2 4 4 5 6 6 7 7 6 4 1 1 3 4 5 7 8 9 11 12 14 16 13 10 11 11 11 10 12 16 16 16 15 14 14 14 13 15 14 13
4 6 4 1 3 3 2 2 6 1 6 5 4 4 5 6 6 6 6 4 1 2 4 5 7 8 8 10 12 14 16 14 15 14 12 11 10 11 14 16 16 15 15 13 13 14 14 15 14
3 3 3 4 4 6 4 5 5 2 6 6 4 5 5 6 5 5 5 4 3 1 3 5 7 8 8 10 12 12 13 11 12 14 13 12 12 12 11 16 17 17 16 16 14 13 14 13 15
4 1 2 3 6 6 6 6 5 3 5 4 4 5 5 5 5 5 5 4 4 2 1 4 7 8 8 10 11 11 13 13 14 13 13 12 12 10 12 14 16 17 17 17 16 14 16 14 15
3 5 2 3 4 5 7 6 3 2 3 3 4 5 5 5 5 5 4 4 3 3 3 3 5 7 8 8 9 9 11 12 13 12 14 14 14 12 11 13 15 16 16 17 17 14 14 16 15
5 3 4 4 4 4 6 6 3 4 2 3 4 4 4 4 3 3 4 5 5 4 4 4 5 5 5 6 7 8 9 10 11 12 14 13 12 12 14 14 14 15 16 17 17 17 16 18 16
1 3 4 4 6 5 7 9 5 1 3 4 5 4 3 2 2 3 4 6 6 6 6 6 5 5 5 5 6 7 8 8 9 11 12 11 12 12 13 13 14 15 16 16 18 19 18 18 18
Wind_Direction
258 243 233 247 244 247 261 247 81 92 90 65 46 343 333 349 15 131 172 165 136 143 148 156 154 152 148 145 140 135 129 122 115 108 102 95 89 84 78 74 70 66 62 58 55 54 53 52 51
267 240 239 242 251 265 275 72 77 69 73 84 88 289 278 94 101 123 161 149 144 146 148 157 157 155 153 150 146 142 136 130 123 117 109 103 96 90 84 78 73 68 64 60 56 54 52 51 50
270 259 249 236 250 262 312 52 77 88 93 149 186 217 290 90 127 146 154 144 149 148 151 158 159 159 157 155 152 148 144 138 132 126 118 111 103 96 88 82 75 70 65 60 56 52 50 49 48
260 233 241 248 266 278 335 52 88 122 142 219 262 207 148 95 128 141 141 151 152 150 149 156 162 162 162 160 158 155 150 146 140 135 128 121 113 105 96 87 79 73 67 61 56 51 48 46 44
231 251 247 257 264 269 237 95 103 203 190 185 207 259 142 110 106 127 145 161 158 154 147 158 166 167 166 165 163 161 157 153 149 145 139 132 124 116 107 97 87 77 70 62 56 49 44 41 39
257 257 269 272 281 299 11 114 144 223 259 190 173 247 131 133 133 141 155 167 162 155 148 159 171 171 171 170 169 166 164 161 157 154 149 144 137 131 122 111 99 85 74 64 55 47 40 35 34
301 297 286 293 300 308 325 102 164 270 274 227 160 211 136 169 153 146 159 172 166 158 152 157 172 173 175 175 174 172 171 168 166 163 159 155 150 146 137 128 118 102 85 69 55 46 35 29 29
313 300 289 288 292 302 356 87 35 324 290 291 155 216 168 166 147 146 158 179 174 164 161 160 171 172 172 174 179 178 176 175 173 170 166 165 164 159 158 151 143 130 110 84 57 38 26 18 21
269 270 275 283 296 312 359 287 245 135 287 282 205 186 87 127 140 150 161 186 186 176 176 168 173 174 172 173 184 180 180 180 177 174 175 172 172 171 175 170 164 164 164 161 100 359 345 335 344
226 258 270 286 309 320 321 306 298 227 229 240 222 145 130 141 158 171 180 188 191 187 183 181 177 174 173 179 173 169 174 173 168 162 168 177 198 180 169 169 179 190 201 214 221 247 273 296 335
253 259 275 292 314 327 306 291 276 260 254 237 228 193 162 167 175 187 193 195 195 188 184 186 184 174 174 171 164 172 173 167 178 175 171 186 189 154 152 156 182 199 212 223 220 239 232 243 174
268 273 282 290 328 316 286 283 277 252 249 252 263 231 166 178 189 195 198 198 192 189 191 188 185 177 175 170 169 172 173 172 182 184 174 178 177 172 176 182 180 190 196 200 204 215 213 217 229
280 274 281 287 278 257 267 269 276 268 263 261 254 234 177 190 200 204 203 199 193 194 191 191 187 183 177 173 175 178 177 174 177 178 179 175 175 183 184 191 188 192 190 184 204 218 215 212 227
307 320 299 279 260 248 254 267 264 264 257 251 240 226 193 197 202 203 205 205 200 196 192 189 190 186 180 182 181 182 179 173 176 177 185 183 179 184 186 190 192 194 192 190 195 211 211 213 216
300 285 279 256 232 215 292 276 239 253 254 252 243 224 204 201 200 206 208 208 204 197 190 189 191 188 185 186 186 186 183 178 183 181 187 190 188 187 186 190 191 194 191 191 196 218 208 219 225
238 252 267 268 163 129 137 272 266 299 299 272 253 235 215 206 204 207 206 205 203 194 190 189 190 191 190 189 189 190 189 188 189 185 187 193 195 191 188 191 196 190 186 185 189 203 200 215 219
238 276 306 336 173 180 205 269 285 290 288 281 269 256 239 220 210 207 204 200 197 194 187 185 186 190 191 189 188 194 195 196 192 189 190 194 196 195 192 194 196 188 186 188 199 198 196 207 216
332 327 314 311 299 283 270 283 298 305 298 302 306 298 287 268 234 209 199 195 190 188 184 182 184 187 187 186 189 196 207 204 197 195 196 194 197 197 196 197 197 190 188 193 196 199 198 202 206
325 303 296 294 304 333 294 290 295 302 317 333 336 342 340 322 311 237 187 182 177 178 181 182 185 187 186 191 196 200 207 206 204 202 200 199 198 198 198 201 200 197 197 197 195 191 199 204 190
285 286 291 299 343 325 290 288 286 279 53 41 25 15 13 360 354 1 141 163 171 177 183 185 188 188 193 198 199 201 200 206 211 210 209 204 202 200 203 204 202 201 200 199 198 193 193 200 187
286 288 312 324 326 284 291 304 310 107 80 68 55 40 33 20 9 4 63 149 165 179 186 192 192 192 194 191 184 192 199 210 215 214 214 210 206 205 205 206 205 204 202 206 203 196 194 201 199
295 350 333 318 325 310 327 305 292 121 78 62 51 43 38 28 26 19 31 149 180 191 186 190 192 193 191 188 195 198 206 217 220 216 215 212 212 212 210 208 208 208 207 208 207 203 199 191 198
292 322 288 279 289 287 256 242 278 110 71 59 49 41 43 36 32 26 19 204 195 187 185 190 195 200 194 196 202 208 221 228 227 219 221 218 217 216 215 212 211 213 212 211 208 206 203 203 202
292 290 268 225 267 266 212 229 285 48 89 69 51 45 39 32 30 25 27 37 177 178 183 190 201 212 205 204 208 214 225 228 227 226 227 223 220 218 217 215 215 216 216 214 212 210 208 208 208
260 315 332 335 233 244 112 257 257 122 110 104 79 57 45 39 33 22 17 6 327 196 198 200 210 223 217 215 218 222 227 229 233 234 233 230 228 224 219 215 217 217 218 215 211 213 214 210 208
313 316 333 310 303 316 316 255 254 124 127 123 106 82 57 46 35 25 21 12 2 291 210 208 218 228 224 223 227 229 230 230 236 236 235 235 235 230 217 214 217 217 215 216 213 216 217 214 215
295 289 52 312 282 270 258 252 266 143 120 104 83 65 54 45 34 22 16 18 8 355 266 222 223 231 228 227 230 232 232 233 237 237 236 240 241 235 221 216 216 216 215 214 213 218 218 217 217
287 324 307 253 286 295 286 286 280 11 19 42 40 46 52 49 30 14 4 357 345 330 300 266 237 235 234 229 229 236 236 237 239 238 239 240 240 236 230 222 218 216 215 213 214 218 216 217 219
180 211 229 258 269 270 286 271 323 340 1 30 38 51 56 54 22 0 352 346 338 333 316 294 269 258 251 241 239 242 245 243 243 243 244 243 242 236 234 230 223 219 216 214 216 218 214 218 219
151 251 245 255 270 274 285 276 274 258 70 61 49 35 38 39 7 355 350 343 336 333 324 315 302 285 272 260 255 255 256 255 252 252 252 247 245 240 236 233 229 225 220 216 216 219 217 218 220